This is the latest recevied weather packets stored in our database for station/object OE7AOT-2. If no packets are shown the sender has not sent any weather packets the latest 1 day(s).
| Time | Temp. | Humidity | Pressure | Rain* | Wind** | Luminosity | Snow |
|---|---|---|---|---|---|---|---|
| 1778071962 | 45° C | 41% | 914.5 hPa | 0 mm | - | - | - |
| 1778071825 | 42.78° C | 42% | 914.5 hPa | 0 mm | - | - | - |
| 1778071688 | 38.33° C | 47% | 914.4 hPa | 0 mm | - | - | - |
| 1778071346 | 35.56° C | 49% | 914.5 hPa | 0 mm | - | - | - |
| 1778071209 | 39.44° C | 46% | 914.5 hPa | 0 mm | - | - | - |
| 1778070935 | 42.22° C | 44% | 914.7 hPa | 0 mm | - | - | - |
| 1778070867 | 40.56° C | 46% | 914.7 hPa | 0 mm | - | - | - |
| 1778070730 | -12.22° C | - | - | - | - | - | - |
| 1778070593 | 35.56° C | 53% | 914.7 hPa | 0 mm | - | - | - |
| 1778070456 | 35° C | 54% | 914.9 hPa | 0 mm | - | - | - |
| 1778070251 | 33.89° C | 57% | 914.9 hPa | 0 mm | - | - | - |
| 1778070114 | 31.67° C | 59% | 915 hPa | 0 mm | - | - | - |
| 1778069977 | 32.78° C | 58% | 914.9 hPa | 0 mm | - | - | - |
| 1778069840 | 31.11° C | 60% | 914.8 hPa | 0 mm | - | - | - |
| 1778069498 | 31.11° C | 60% | 914.9 hPa | 0 mm | - | - | - |
| 1778069430 | 31.11° C | 59% | 914.9 hPa | 0 mm | - | - | - |
| 1778069156 | 31.67° C | 59% | 914.9 hPa | 0 mm | - | - | - |
| 1778069087 | 31.67° C | 59% | 914.9 hPa | 0 mm | - | - | - |
| 1778069019 | 31.67° C | 59% | 914.9 hPa | 0 mm | - | - | - |
| 1778068882 | 31.67° C | 59% | 914.8 hPa | 0 mm | - | - | - |
| 1778068540 | 31.67° C | 58% | 915 hPa | 0 mm | - | - | - |
| 1778068403 | 32.22° C | 58% | 915.1 hPa | 0 mm | - | - | - |
| 1778068266 | 33.33° C | 57% | 914.9 hPa | 0 mm | - | - | - |
| 1778067992 | 35° C | 55% | 915 hPa | 0 mm | - | - | - |
| 1778067924 | 35.56° C | 54% | 915.1 hPa | 0 mm | - | - | - |
* Rain latest hour (hover to see other rain measurements)
** Current wind speed in m/s (hover to see current wind gust speed)